{"data":{"norad_id":60578,"epoch":"2026-05-25T05:09:55.657728Z","epoch_age_seconds":53672,"freshness":"FRESH","line1":"1 60578U 24149DQ  26145.21522752  .00006148  00000+0  41628-3 0  9992","line2":"2 60578  97.6713 226.2045 0007145 123.1592 237.0322 15.06840349 96949","mean_motion":15.06840349,"eccentricity":0.0007145,"inclination_deg":97.6713,"raan_deg":226.2045,"arg_perigee_deg":123.1592,"mean_anomaly_deg":237.0322,"bstar":0.00041628,"rev_number":9694,"period_min":95.564204990638,"perigee_km":540.91508286665,"apogee_km":550.80947783828,"semimajor_km":6923.9992803525,"source":"CELESTRAK","updated_at":"2026-05-25T13:38:13.536716Z"}}